STARLINK-34709, 64844

Orbit data source: Space-Track

STARLINK-34709, 64844 is a payload satellite owned by SpaceX/Seattle (US) in SSO that was launched on Sat, 19 Jul 2025 UTC via an FALCON 9 launch vehicle from the Air Force Western Test Range (AFWTR). Payload-class satellites include a variety of spacecraft equipped with specific instruments for various scientific and technological missions. These include communications satellites like Starlink; space stations such as the ISS; scientific satellites like the Hubble; Earth observation satellites from companies like Planet Labs, Umbra, and HawkEye 360; GPS; miniature CubeSats for education and research; and military/defense satellites.

Loading next visibility...
Identifier
64844, 2025-152C
Orbit
SSO
Country
Flag of USUS
Related business
Manufacturer
SpaceX/Seattle
Mission
Operational Commercial Communications
Bus & Motor
STARLINK V2MO, Unknown motor
Mass
575 kg wet, ~530 kg dry
Launch date (UTC)
2025-07-19 (9 months ago)
Launch vehicle
FALCON 9
Launch site
Air Force Western Test Range (AFWTR)
Object type
Payload
Rocket body
Debris
Shape & HBR
Box + 2 Pan, 17.7 m
Radar Cross Section
36.964 m², Large (>1 m²)

Expand to show TLE details & history
Last TLE update: 5 hours ago

TLE from 5 hours ago
0 STARLINK-34709
1 64844U 25152C   26095.52792473  .00004070  00000-0  28610-3 0  9993
2 64844  97.6021 311.9254 0002264  89.3103 270.8383 15.05649749 39458
Epoch: 2026-04-05T12:40Z
TLE epoch observation values (Epoch: 2026-04-05T12:40:12.696Z)
Latitude
-0.00005°
Longitude
-71.95955°
Altitude
552.555 km
Speed
7.586 km/s
True Right ascension
20h 47m 42s
True Declination
0° 00' 00"
Sunlit
Object was in daylight at epoch
Visualization orbit readout
Latitude
Unknown
Longitude
Unknown
Altitude
Unknown
Speed
Unknown
Apparent Right ascension
Unknown
Apparent Declination
Unknown
Sunlit
N/A
Visualization observer readout
Local Sidereal Time
23:26:38
Azimuth
Unknown
Elevation
Unknown
Doppler factor
Unknown
Orbital elements
Apogee altitude
548.073 km
Perigee altitude
544.938 km
Semi-major axis
6,924.642 km
Eccentricity
0.00023
Inclination
97.6021°
RAAN
311.9254°
Arg. of periapsis
89.3103°
True anomaly
270.81236°
Mean anomaly
270.8383°
Eccentric anomaly
270.82533°
Mean motion
3.76658 °/min
Orbital period
95.58 mins
BSTAR
0.0002861
Loading maneuver chart data...
Computing Atmospheric mass density...
Loading historical data...
Loading historical data...
Loading historical data...
Loading historical data...
Loading historical data...
Loading historical data...
Loading historical data...

Documentation

Showing up to 5 results
|